Volver al catálogo

ARIANE 5 DEB

SYLDA

ActivoHEO
NORAD 39236·DEBRIS·🇫🇷 France

Lanzado Aug 29, 2013 desde Guiana Space Centre

Loading…

Próximos Pases (próximas 24 horas)

TLE

ActualizadoSource: Space-Track

Época: Sep 14, 2026, 09:35 UTC

1 39236U 13044D   26257.39961599  .00036261  00000-0  53691-2 0  9992
2 39236   3.5480 126.0066 5583736 122.0790 304.2503  4.69132704188611

Sigue ARIANE 5 DEB en tiempo real con AllMySat

Download on the App Store